STARLINK-34715

Last updated on Tue Aug 26 2025 00:02:05 GMT+0000 (Coordinated Universal Time)

1 64931U 25157AD 25237.50695602 -.00256814 00000+0 -55477-2 0 9992 2 64931 53.1603 187.8250 0000864 85.0618 275.0488 15.44920176 5930
UTC large
Height (km)
Speed (km/s)
/
Latitude / Longitude
Inclination (degrees)
Orbital Period (minutes)
Azimuth
Elevation
Range (km)
Doppler Factor

Next 0 passes for location: London (51.5072 / 0.1276)

Sorry there are no passes over London.